INTELSAT 34

Last updated on Sun May 29 2016 17:40:17 GMT+0000 (Coordinated Universal Time)

1 40874U 15039A 16150.18715664 -.00000290 00000-0 00000+0 0 9993 2 40874 0.0121 11.4695 0000314 27.3262 220.2247 1.00270352 2860
UTC large
Height (km)
Speed (km/s)
/
Latitude / Longitude
Inclination (degrees)
Orbital Period (minutes)
Azimuth
Elevation
Range (km)
Doppler Factor

Next 0 passes for location: London (51.5072 / 0.1276)

Sorry there are no passes over London.